Crosby, ND

2:20 PM CDT on March 27, 2017 (GMT -0500)
Crosby

Weather History for KD50 - October, 2012

Change the Weather History Date:

Thursday, October 4, 2012

  Actual Average (KISN) Record (KISN)
Temperature  
Mean Temperature 34 °F -  
Max Temperature 41 °F 61 °F 93 °F (1963)
Min Temperature 28 °F 35 °F 19 °F (2004)
Degree Days  
Heating Degree Days 30    
Moisture  
Dew Point 26 °F    
Average Humidity 77    
Maximum Humidity 100    
Minimum Humidity 49    
Precipitation  
Precipitation 0.00 in - - ()
Sea Level Pressure  
Sea Level Pressure 30.39 in    
Wind  
Wind Speed 10 mph (NNW)    
Max Wind Speed 17 mph    
Max Gust Speed 21 mph    
Visibility 10 miles    
Events      
Averages and records for this station are not official NWS values.
T = Trace of Precipitation, MM = Missing Value Source: NWS Daily Summary

Daily Weather History Graph

Daily Weather History Graph

Search for Another Location

Airport or City:

Trip Planner

Search our weather history database for the weather conditions in past years. The results will help you decide how hot, cold, wet, or windy it might be!

Date:

Astronomy

Oct. 04, 2012 Rise Set
Actual Time 7:58 AM CDT 7:24 PM CDT
Civil Twilight 7:26 AM CDT 7:56 PM CDT
Nautical Twilight 6:49 AM CDT 8:32 PM CDT
Astronomical Twilight 6:12 AM CDT 9:09 PM CDT
Moon 9:38 PM CDT (10/4) 12:40 PM CDT (10/4)
Length of Visible Light 12h 29m
Length of Day
11h 26m
Waning Gibbous, 82% of the Moon is Illuminated
Oct 4
Waning Gibbous
Oct 8
Last Quarter
Oct 15
New
Oct 21
First Quarter
Oct 29
Full

Hourly Weather History & Observations

Time (CDT) Temp. Windchill Dew Point Humidity Pressure Visibility Wind Dir Wind Speed Gust Speed Precip Events Conditions
12:15 AM 35.6 °F 27.5 °F 30.2 °F 81% 30.38 in 10.0 mi North 11.5 mph - N/A   Clear
12:35 AM 35.6 °F 28.0 °F 30.2 °F 81% 30.38 in 10.0 mi North 10.4 mph - N/A   Clear
12:55 AM 33.8 °F 27.0 °F 30.2 °F 87% 30.38 in 10.0 mi North 8.1 mph - N/A   Clear
1:15 AM 32.0 °F 25.6 °F 28.4 °F 87% 30.38 in 10.0 mi North 6.9 mph - N/A   Clear
1:35 AM 32.0 °F 25.6 °F 28.4 °F 87% 30.38 in 10.0 mi NNW 6.9 mph - N/A   Clear
1:55 AM 32.0 °F 25.6 °F 28.4 °F 87% 30.39 in 10.0 mi NW 6.9 mph - N/A   Clear
2:15 AM 32.0 °F 25.6 °F 28.4 °F 87% 30.39 in 10.0 mi NW 6.9 mph - N/A   Clear
2:35 AM 32.0 °F 24.8 °F 28.4 °F 87% 30.40 in 10.0 mi NNW 8.1 mph - N/A   Clear
2:55 AM 32.0 °F 24.8 °F 28.4 °F 87% 30.40 in 10.0 mi NW 8.1 mph - N/A   Clear
3:15 AM 32.0 °F 24.2 °F 28.4 °F 87% 30.40 in 10.0 mi NW 9.2 mph - N/A   Clear
3:35 AM 32.0 °F 23.6 °F 28.4 °F 87% 30.39 in 10.0 mi NNW 10.4 mph - N/A   Scattered Clouds
3:55 AM 32.0 °F 24.8 °F 28.4 °F 87% 30.40 in 10.0 mi NNW 8.1 mph - N/A   Mostly Cloudy
4:15 AM 30.2 °F 21.9 °F 28.4 °F 93% 30.40 in 10.0 mi NW 9.2 mph - N/A   Mostly Cloudy
4:35 AM 28.4 °F 19.1 °F 26.6 °F 93% 30.40 in 10.0 mi NNW 10.4 mph - N/A   Partly Cloudy
4:55 AM 28.4 °F 19.1 °F 26.6 °F 93% 30.39 in 10.0 mi NNW 10.4 mph - N/A   Clear
5:15 AM 28.4 °F 19.7 °F 26.6 °F 93% 30.40 in 10.0 mi NNW 9.2 mph - N/A   Clear
5:35 AM 28.4 °F 18.5 °F 26.6 °F 93% 30.40 in 10.0 mi NNW 11.5 mph - N/A   Clear
5:55 AM 28.4 °F 19.1 °F 26.6 °F 93% 30.40 in 10.0 mi NW 10.4 mph - N/A   Clear
6:15 AM 28.4 °F 20.4 °F 26.6 °F 93% 30.40 in 10.0 mi NW 8.1 mph - N/A   Partly Cloudy
6:35 AM 28.4 °F 19.7 °F 26.6 °F 93% 30.40 in 10.0 mi NNW 9.2 mph - N/A   Mostly Cloudy
6:55 AM 28.4 °F 20.4 °F 26.6 °F 93% 30.40 in 10.0 mi North 8.1 mph - N/A   Overcast
7:15 AM 28.4 °F 21.2 °F 26.6 °F 93% 30.40 in 10.0 mi NNW 6.9 mph - N/A   Mostly Cloudy
7:35 AM 28.4 °F 21.2 °F 26.6 °F 93% 30.40 in 10.0 mi NNW 6.9 mph - N/A   Mostly Cloudy
7:55 AM 28.4 °F 20.4 °F 28.4 °F 100% 30.41 in 10.0 mi NW 8.1 mph - N/A   Overcast
8:15 AM 28.4 °F 20.4 °F 28.4 °F 100% 30.41 in 10.0 mi NW 8.1 mph - N/A   Overcast
8:35 AM 30.2 °F 22.6 °F 28.4 °F 93% 30.41 in 10.0 mi NNW 8.1 mph - N/A   Overcast
8:55 AM 32.0 °F 24.2 °F 28.4 °F 87% 30.40 in 10.0 mi NNW 9.2 mph - N/A   Overcast
9:15 AM 32.0 °F 24.2 °F 28.4 °F 87% 30.40 in 10.0 mi NNW 9.2 mph - N/A   Mostly Cloudy
9:35 AM 32.0 °F 24.8 °F 28.4 °F 87% 30.40 in 10.0 mi NW 8.1 mph - N/A   Mostly Cloudy
9:55 AM 32.0 °F 24.2 °F 30.2 °F 93% 30.41 in 10.0 mi NW 9.2 mph - N/A   Mostly Cloudy
10:15 AM 32.0 °F 24.2 °F 30.2 °F 93% 30.41 in 10.0 mi NNW 9.2 mph - N/A   Overcast
10:35 AM 32.0 °F 23.6 °F 30.2 °F 93% 30.41 in 10.0 mi NNW 10.4 mph - N/A   Overcast
10:55 AM 33.8 °F 24.8 °F 32.0 °F 93% 30.41 in 10.0 mi NNW 12.7 mph - N/A   Overcast
11:15 AM 35.6 °F 27.1 °F 30.2 °F 81% 30.41 in 10.0 mi NW 12.7 mph - N/A   Overcast
11:35 AM 35.6 °F 26.6 °F 28.4 °F 75% 30.40 in 10.0 mi NW 13.8 mph 18.4 mph N/A   Overcast
11:55 AM 35.6 °F 26.2 °F 28.4 °F 75% 30.41 in 10.0 mi NNW 15.0 mph - N/A   Overcast
12:15 PM 35.6 °F 27.1 °F 26.6 °F 70% 30.41 in 10.0 mi NNW 12.7 mph - N/A   Overcast
12:35 PM 35.6 °F 27.5 °F 26.6 °F 70% 30.40 in 10.0 mi NNW 11.5 mph - N/A   Overcast
12:55 PM 35.6 °F 27.1 °F 26.6 °F 70% 30.41 in 10.0 mi North 12.7 mph - N/A   Overcast
1:15 PM 35.6 °F 28.0 °F 26.6 °F 70% 30.40 in 10.0 mi NNW 10.4 mph - N/A   Overcast
1:35 PM 35.6 °F 27.5 °F 24.8 °F 65% 30.40 in 10.0 mi NNW 11.5 mph - N/A   Overcast
1:55 PM 37.4 °F 29.3 °F 24.8 °F 60% 30.40 in 10.0 mi NNW 12.7 mph - N/A   Overcast
2:15 PM 37.4 °F 29.3 °F 24.8 °F 60% 30.39 in 10.0 mi NNW 12.7 mph 18.4 mph N/A   Overcast
2:35 PM 37.4 °F 29.3 °F 24.8 °F 60% 30.38 in 10.0 mi North 12.7 mph 17.3 mph N/A   Overcast
2:55 PM 37.4 °F 29.8 °F 24.8 °F 60% 30.38 in 10.0 mi NNW 11.5 mph 16.1 mph N/A   Overcast
3:15 PM 37.4 °F 29.3 °F 24.8 °F 60% 30.37 in 10.0 mi NNW 12.7 mph - N/A   Overcast
3:35 PM 39.2 °F 32.5 °F 24.8 °F 56% 30.37 in 10.0 mi NNW 10.4 mph 16.1 mph N/A   Mostly Cloudy
3:55 PM 39.2 °F 31.6 °F 24.8 °F 56% 30.37 in 10.0 mi North 12.7 mph - N/A   Mostly Cloudy
4:15 PM 39.2 °F 33.0 °F 24.8 °F 56% 30.36 in 10.0 mi NW 9.2 mph - N/A   Mostly Cloudy
4:35 PM 41.0 °F 32.5 °F 23.0 °F 49% 30.36 in 10.0 mi NNW 17.3 mph 20.7 mph N/A   Mostly Cloudy
4:55 PM 39.2 °F 30.8 °F 23.0 °F 52% 30.36 in 10.0 mi NNW 15.0 mph 19.6 mph N/A   Unknown
5:15 PM 39.2 °F 32.0 °F 23.0 °F 52% 30.36 in 10.0 mi North 11.5 mph - N/A   Unknown
5:35 PM 39.2 °F 30.8 °F 23.0 °F 52% 30.36 in 10.0 mi NW 15.0 mph 19.6 mph N/A   Partly Cloudy
5:55 PM 39.2 °F 32.0 °F 23.0 °F 52% 30.36 in 10.0 mi NNW 11.5 mph 20.7 mph N/A   Partly Cloudy
6:15 PM 39.2 °F 31.6 °F 23.0 °F 52% 30.36 in 10.0 mi NNW 12.7 mph 20.7 mph N/A   Partly Cloudy
6:35 PM 37.4 °F 30.3 °F 21.2 °F 52% 30.36 in 10.0 mi NNW 10.4 mph 18.4 mph N/A   Clear
6:55 PM 37.4 °F 29.3 °F 23.0 °F 56% 30.36 in 10.0 mi NNW 12.7 mph 17.3 mph N/A   Clear
7:15 PM 35.6 °F 29.2 °F 23.0 °F 60% 30.37 in 10.0 mi NNW 8.1 mph - N/A   Clear
7:35 PM 32.0 °F 24.8 °F 23.0 °F 69% 30.37 in 10.0 mi NW 8.1 mph - N/A   Clear
7:55 PM 28.4 °F 19.7 °F 21.2 °F 74% 30.37 in 10.0 mi NW 9.2 mph - N/A   Clear
8:15 PM 28.4 °F 20.4 °F 21.2 °F 74% 30.37 in 10.0 mi WNW 8.1 mph - N/A   Clear
8:35 PM 28.4 °F 19.7 °F 23.0 °F 80% 30.37 in 10.0 mi WNW 9.2 mph - N/A   Clear
8:55 PM 28.4 °F 20.4 °F 23.0 °F 80% 30.37 in 10.0 mi WNW 8.1 mph - N/A   Mostly Cloudy
9:15 PM 32.0 °F 23.0 °F 23.0 °F 69% 30.38 in 10.0 mi NW 11.5 mph - N/A   Overcast
9:35 PM 30.2 °F 21.9 °F 23.0 °F 75% 30.38 in 10.0 mi NW 9.2 mph - N/A   Overcast
9:55 PM 28.4 °F 20.4 °F 21.2 °F 74% 30.38 in 10.0 mi NW 8.1 mph - N/A   Mostly Cloudy
10:15 PM 28.4 °F 19.7 °F 21.2 °F 74% 30.38 in 10.0 mi NW 9.2 mph - N/A   Mostly Cloudy
10:35 PM 28.4 °F 19.7 °F 23.0 °F 80% 30.38 in 10.0 mi NNW 9.2 mph - N/A   Overcast
10:55 PM 28.4 °F 21.2 °F 23.0 °F 80% 30.38 in 10.0 mi NW 6.9 mph - N/A   Overcast
11:15 PM 30.2 °F 21.9 °F 23.0 °F 75% 30.38 in 10.0 mi NNW 9.2 mph - N/A   Overcast
11:55 PM 32.0 °F 24.8 °F 23.0 °F 69% 30.38 in 10.0 mi North 8.1 mph - N/A   Overcast